This demonstration page uses our WeatherBlox Daily Observations layout. Learn more.

Hourly Observations for March 25, 2016

Temp ( °F °C ) Dew Point ( °F °C ) Humidity (%) Winds ( mph kmh ) Pressure ( in mb ) Visibility ( mi km ) Precip ( " mm )
12:15 am 00:15 Clear 30 -0.9 22 -5.8 70 70 S 9 15 30 1016 10 16.0934 0 0
12:35 am 00:35 Clear 29 -1.4 22 -5.6 73 73 S 7 11 30.03 1017 10 16.0934 0 0
12:55 am 00:55 Clear 30 -1.3 21 -6 71 71 S 8 13 30.03 1017 10 16.0934 0 0
1:15 am 01:15 Clear 28 -2.1 21 -6 75 75 SSE 8 13 30.03 1017 10 16.0934 0 0
1:35 am 01:35 Clear 29 -1.7 21 -6.1 72 72 S 9 15 30.03 1017 10 16.0934 0 0
1:55 am 01:55 Clear 29 -1.8 21 -6.3 72 72 S 9 15 30.03 1017 10 16.0934 0 0
2:15 am 02:15 Clear 30 -0.9 20 -6.6 66 66 S 12 19 29.97 1015 10 16.0934 0 0
2:35 am 02:35 Clear 30 -1.2 20 -6.6 67 67 S 9 15 29.97 1015 10 16.0934 0 0
2:55 am 02:55 Clear 29 -1.8 20 -6.8 69 69 S 9 15 30 1016 10 16.0934 0 0
3:15 am 03:15 Clear 28 -2 20 -6.5 72 72 S 6 9 30 1016 10 16.0934 0 0
3:35 am 03:35 Clear 28 -2 20 -6.6 71 71 S 7 11 30 1016 10 16.0934 0 0
3:55 am 03:55 Clear 28 -2.5 20 -6.5 74 74 S 6 9 29.97 1015 10 16.0934 0 0
4:15 am 04:15 Clear 28 -2.5 21 -6.3 75 75 S 6 9 29.97 1015 10 16.0934 0 0
4:35 am 04:35 Partly Cloudy 29 -1.7 21 -6.1 72 72 S 8 13 29.91 1013 10 16.0934 0 0
4:55 am 04:55 Mostly Cloudy 30 -1.3 22 -5.7 72 72 S 7 11 29.91 1013 10 16.0934 0 0
5:15 am 05:15 Cloudy 32 0 22 -5.4 67 67 S 10 17 29.91 1013 10 16.0934 0 0
5:35 am 05:35 Cloudy 33 0.6 22 -5.5 64 64 S 13 20 29.91 1013 10 16.0934 0 0
5:55 am 05:55 Cloudy 33 0.6 22 -5.5 64 64 S 9 15 29.91 1013 10 16.0934 0 0
6:15 am 06:15 Cloudy 32 0.2 23 -5 68 68 S 9 15 29.91 1013 10 16.0934 0 0
6:35 am 06:35 Cloudy 33 0.5 23 -5.2 66 66 S 10 17 29.91 1013 10 16.0934 0 0
6:55 am 06:55 Cloudy 33 0.5 22 -5.3 65 65 S 10 17 29.91 1013 10 16.0934 0 0
7:15 am 07:15 Cloudy 33 0.6 22 -5.5 64 64 S 9 15 29.91 1013 10 16.0934 0 0
7:35 am 07:35 Cloudy 33 0.6 22 -5.5 64 64 S 8 13 29.91 1013 10 16.0934 0 0
7:55 am 07:55 Mostly Cloudy 32 0 23 -5.1 69 69 SSE 8 13 29.91 1013 10 16.0934 0 0
8:15 am 08:15 Partly Cloudy 32 0.1 23 -5.1 68 68 SSE 10 17 29.91 1013 10 16.0934 0 0
8:35 am 08:35 Partly Cloudy 33 0.3 23 -5.1 67 67 S 10 17 29.91 1013 10 16.0934 0 0
8:55 am 08:55 Sunny 34 1.3 23 -4.8 64 64 S 12 19 29.88 1012 10 16.0934 0 0
9:15 am 09:15 Sunny 35 1.6 23 -5 62 62 S 12 19 29.88 1012 10 16.0934 0 0
9:35 am 09:35 Partly Cloudy 37 2.7 24 -4.5 59 59 S 12 19 29.88 1012 10 16.0934 0 0
9:55 am 09:55 Sunny 40 4.5 24 -4.5 52 52 SSW 12 19 29.85 1011 10 16.0934 0 0
10:15 am 10:15 Sunny 42 5.6 25 -3.9 51 51 S 9 15 29.85 1011 10 16.0934 0 0
10:35 am 10:35 Sunny 45 7.1 25 -3.9 46 46 S 13 20 29.83 1010 10 16.0934 0 0
10:55 am 10:55 Sunny 47 8.1 24 -4.7 40 40 SSW 13 20 29.8 1009 10 16.0934 0 0
11:15 am 11:15 Sunny 48 9 23 -5.2 37 37 SSW 13 20 29.8 1009 10 16.0934 0 0
11:35 am 11:35 Sunny 50 9.9 23 -5.1 35 35 SSW 14 22 29.8 1009 10 16.0934 0 0
11:55 am 11:55 Partly Cloudy 49 9.2 22 -5.4 36 36 SSW 15 24 29.8 1009 10 16.0934 0 0
12:15 pm 12:15 Partly Cloudy 50 9.8 24 -4.7 36 36 SSW 12 19 29.8 1009 10 16.0934 0 0
12:35 pm 12:35 Cloudy 50 10.1 23 -4.9 35 35 SSW 9 15 29.8 1009 10 16.0934 0 0
12:55 pm 12:55 Mostly Cloudy 52 11.3 24 -4.2 34 34 WSW 6 9 29.77 1008 10 16.0934 0 0
1:15 pm 13:15 Partly Cloudy 54 12.1 25 -3.9 33 33 S 10 17 29.77 1008 10 16.0934 0 0
1:35 pm 13:35 Partly Cloudy 54 12.2 26 -3.5 34 34 S 12 19 29.77 1008 10 16.0934 0 0
1:55 pm 13:55 Partly Cloudy 53 11.5 26 -3.6 35 35 S 10 17 29.77 1008 10 16.0934 0 0
2:15 pm 14:15 Partly Cloudy 52 11 25 -4 35 35 SSE 8 13 29.77 1008 10 16.0934 0 0
2:35 pm 14:35 Mostly Cloudy 52 11.3 25 -3.9 35 35 SE 8 13 29.77 1008 10 16.0934 0 0
2:55 pm 14:55 Cloudy 53 11.4 25 -3.7 35 35 SSE 6 9 29.74 1007 10 16.0934 0 0
3:15 pm 15:15 Cloudy 54 12.1 25 -3.7 33 33 SSE 12 19 29.74 1007 10 16.0934 0 0
3:35 pm 15:35 Mostly Cloudy 56 13.2 26 -3.6 31 31 SSE 9 15 29.74 1007 10 16.0934 0 0
3:55 pm 15:55 Partly Cloudy 57 14.1 27 -3 31 31 SE 14 22 29.71 1006 10 16.0934 0 0
4:15 pm 16:15 Partly Cloudy 57 14 25 -3.9 29 29 SSE 9 15 29.68 1005 10 16.0934 0 0
4:35 pm 16:35 Sunny 57 14 26 -3.6 30 30 SE 9 15 29.68 1005 10 16.0934 0 0
4:55 pm 16:55 Sunny 57 14 26 -3.2 30 30 SE 10 17 29.68 1005 10 16.0934 0 0
5:15 pm 17:15 Sunny 57 13.7 27 -3 32 32 ESE 14 22 29.68 1005 10 16.0934 0 0
5:35 pm 17:35 Partly Cloudy 56 13.4 27 -2.9 32 32 E 15 24 29.68 1005 10 16.0934 0 0
5:55 pm 17:55 Sunny 56 13.5 27 -3 32 32 E 14 22 29.68 1005 10 16.0934 0 0
6:15 pm 18:15 Sunny 56 13.5 26 -3.3 31 31 E 14 22 29.68 1005 10 16.0934 0 0
6:35 pm 18:35 Sunny 55 13 26 -3.5 32 32 E 13 20 29.71 1006 10 16.0934 0 0
6:55 pm 18:55 Sunny 53 11.6 30 -1.1 42 42 E 12 19 29.74 1007 10 16.0934 0 0
7:15 pm 19:15 Mostly Cloudy 52 11.1 30 -1.2 43 43 E 9 15 29.74 1007 10 16.0934 0 0
7:55 pm 19:55 Partly Cloudy 48 9 29 -1.8 47 47 E 10 17 29.77 1008 10 16.0934 0 0
8:15 pm 20:15 Clear 46 7.7 29 -1.9 51 51 E 9 15 29.8 1009 10 16.0934 0 0
8:35 pm 20:35 Partly Cloudy 43 6 28 -2 57 57 E 7 11 29.83 1010 10 16.0934 0 0
8:55 pm 20:55 Clear 42 5.5 28 -2 59 59 E 7 11 29.83 1010 10 16.0934 0 0
9:15 pm 21:15 Clear 40 4.3 28 -2 64 64 ESE 6 9 29.83 1010 10 16.0934 0 0
9:35 pm 21:35 Clear 38 3.6 29 -1.9 68 68 ESE 8 13 29.85 1011 10 16.0934 0 0
9:55 pm 21:55 Clear 38 3.4 29 -1.8 69 69 ESE 7 11 29.85 1011 10 16.0934 0 0
10:15 pm 22:15 Clear 39 4 28 -2 65 65 ESE 6 9 29.83 1010 10 16.0934 0 0
10:35 pm 22:35 Clear 39 4 28 -2.5 63 63 ESE 6 9 29.83 1010 10 16.0934 0 0
10:55 pm 22:55 Mostly Cloudy 40 4.6 28 -2 63 63 ESE 8 13 29.83 1010 10 16.0934 0 0
11:15 pm 23:15 Cloudy 42 5.4 28 -2.1 59 59 NW 7 11 29.83 1010 10 16.0934 0 0
11:35 pm 23:35 Mostly Cloudy 48 9.1 26 -3.1 42 42 N 3 6 29.8 1009 10 16.0934 0 0
11:55 pm 23:55 Partly Cloudy 48 8.9 26 -3.3 42 42 Calm 29.83 1010 10 16.0934 0 0

Powered by AerisWeather